N7MLR Weather Reports


time (UTC)temp
C
wind
direction
speed
KPH
gust
KPH
rain 1hr
cm
rain 24hr
cm
rain mn
cm
humidity
%
barometer
mb
20260506145821 24 233 1.6 1.6 0.00 0.00 0.00 91 1010.3
20260506145317 23 235 1.6 1.6 0.00 0.00 0.00 91 1010.3
20260506144815 23 223 0.0 1.6 0.00 0.00 0.00 92 1010.2
20260506144311 23 217 0.0 0.0 0.00 0.00 0.00 92 1010.1
20260506143810 23 217 0.0 1.6 0.00 0.00 0.00 92 1010.0
20260506143306 23 217 1.6 1.6 0.00 0.00 0.00 93 1010.1
20260506142804 23 212 0.0 0.0 0.00 0.00 0.00 93 1010.3
20260506142305 23 212 1.6 1.6 0.00 0.00 0.00 93 1010.3
20260506141800 23 236 0.0 0.0 0.00 0.00 0.00 93 1010.2
20260506141258 23 229 0.0 0.0 0.00 0.00 0.00 94 1010.1
20260506140755 23 227 3.2 3.2 0.00 0.00 0.00 94 1010.1
20260506140252 23 210 1.6 1.6 0.00 0.00 0.00 94 1010.1
20260506135749 23 242 1.6 1.6 0.00 0.00 0.00 94 1009.7
20260506135245 23 268 1.6 4.8 0.00 0.00 0.00 94 1009.8
20260506134742 23 236 0.0 0.0 0.00 0.00 0.00 94 1009.2
20260506134239 23 232 0.0 0.0 0.00 0.00 0.00 94 1009.3
20260506133736 23 230 1.6 1.6 0.00 0.00 0.00 94 1009.1
20260506133232 23 225 0.0 1.6 0.00 0.00 0.00 94 1009.0
20260506132729 23 240 3.2 4.8 0.00 0.00 0.00 94 1008.9
20260506132227 23 238 1.6 1.6 0.00 0.00 0.00 94 1008.9
20260506131725 23 238 0.0 1.6 0.00 0.00 0.00 94 1009.0
20260506131220 23 224 0.0 1.6 0.00 0.00 0.00 94 1008.7
20260506130717 23 234 3.2 3.2 0.00 0.00 0.00 94 1008.9
20260506130214 23 237 0.0 1.6 0.00 0.00 0.00 94 1008.8
20260506125712 23 232 1.6 1.6 0.00 0.00 0.00 93 1008.9
20260506125210 23 237 1.6 3.2 0.00 0.00 0.00 93 1008.6
20260506124708 23 214 0.0 1.6 0.00 0.00 0.00 93 1008.6
20260506124206 23 209 0.0 1.6 0.00 0.00 0.00 94 1008.8
20260506123703 23 209 1.6 1.6 0.00 0.00 0.00 95 1008.5
20260506123202 22 214 0.0 1.6 0.00 0.00 0.00 96 1008.5
20260506122658 22 229 1.6 1.6 0.00 0.00 0.00 96 1008.5
20260506122155 22 226 0.0 1.6 0.00 0.00 0.00 96 1008.8
20260506121653 22 226 1.6 1.6 0.00 0.00 0.00 96 1008.8
20260506121149 22 226 0.0 0.0 0.00 0.00 0.00 96 1008.6
20260506120647 22 226 0.0 0.0 0.00 0.00 0.00 96 1008.6
20260506120144 22 226 0.0 0.0 0.00 0.00 0.00 96 1008.6
20260506115643 22 226 0.0 0.0 0.00 0.00 0.00 96 1008.7
20260506115140 22 226 0.0 0.0 0.00 0.00 0.00 96 1008.6
20260506114637 22 226 0.0 0.0 0.00 0.00 0.00 96 1008.5
20260506114135 22 226 0.0 0.0 0.00 0.00 0.00 96 1008.4
20260506113634 22 226 0.0 0.0 0.00 0.00 0.00 96 1008.5
20260506113130 22 226 0.0 0.0 0.00 0.00 0.00 96 1008.5
20260506112626 22 226 0.0 0.0 0.00 0.00 0.00 96 1008.6
20260506112124 22 226 0.0 0.0 0.00 0.00 0.00 96 1008.6
20260506111622 22 226 0.0 0.0 0.00 0.00 0.00 96 1008.4
20260506111119 22 226 0.0 0.0 0.00 0.00 0.00 96 1008.5
20260506110617 22 226 0.0 0.0 0.00 0.00 0.00 96 1008.3
20260506110114 22 226 0.0 0.0 0.00 0.00 0.00 96 1008.4
20260506105610 22 226 0.0 0.0 0.00 0.00 0.00 96 1008.6
20260506105107 22 226 0.0 0.0 0.00 0.00 0.00 96 1008.5
20260506104606 22 226 0.0 0.0 0.00 0.00 0.00 96 1008.5
20260506104103 22 227 0.0 1.6 0.00 0.00 0.00 96 1008.5
20260506103600 22 226 0.0 0.0 0.00 0.00 0.00 96 1008.4
20260506103056 22 226 1.6 1.6 0.00 0.00 0.00 96 1008.4
20260506102555 22 227 1.6 1.6 0.00 0.00 0.00 96 1008.5
20260506102052 22 227 1.6 1.6 0.00 0.00 0.00 95 1008.3
20260506101548 22 222 1.6 1.6 0.00 0.00 0.00 95 1008.5
20260506101046 23 216 1.6 1.6 0.00 0.00 0.00 94 1008.3
20260506100544 23 202 1.6 1.6 0.00 0.00 0.00 94 1008.5
20260506100042 23 200 1.6 3.2 0.00 0.00 0.00 94 1008.2
20260506095540 23 224 1.6 1.6 0.00 0.00 0.00 93 1008.0
20260506095036 23 202 1.6 1.6 0.00 0.00 0.00 93 1007.9
20260506094534 23 204 0.0 0.0 0.00 0.00 0.00 93 1008.3
20260506094032 23 191 1.6 3.2 0.00 0.00 0.00 93 1008.2
20260506093530 23 180 1.6 1.6 0.00 0.00 0.00 93 1008.2
20260506093027 22 175 3.2 3.2 0.00 0.00 0.00 94 1008.0
20260506092525 22 229 1.6 1.6 0.00 0.00 0.00 94 1008.2
20260506092021 22 211 3.2 3.2 0.00 0.00 0.00 94 1008.0
20260506091520 22 269 4.8 8.0 0.00 0.00 0.00 95 1008.0
20260506091016 22 222 1.6 1.6 0.00 0.00 0.00 95 1008.2
20260506090514 22 182 3.2 3.2 0.00 0.00 0.00 96 1008.0
20260506090010 22 210 1.6 1.6 0.00 0.00 0.00 96 1007.8
20260506085507 22 270 1.6 1.6 0.00 0.00 0.00 96 1007.7
20260506085004 22 221 1.6 3.2 0.00 0.00 0.00 96 1008.2
20260506084501 22 238 4.8 4.8 0.00 0.00 0.00 96 1007.8
20260506083957 22 222 3.2 3.2 0.00 0.00 0.00 96 1007.9
20260506083454 22 224 0.0 0.0 0.00 0.00 0.00 96 1008.2
20260506082951 22 241 1.6 1.6 0.00 0.00 0.00 96 1008.0
20260506082448 22 235 0.0 0.0 0.00 0.00 0.00 95 1008.0
20260506081944 23 272 1.6 1.6 0.00 0.00 0.00 95 1007.7
20260506081443 23 231 0.0 0.0 0.00 0.00 0.00 95 1007.8
20260506080939 23 210 0.0 1.6 0.00 0.00 0.00 94 1007.7
20260506080436 23 244 3.2 4.8 0.00 0.00 0.00 93 1007.7
20260506073420 23 228 0.0 0.0 0.00 0.00 0.00 93 1008.3
20260506072918 23 230 0.0 0.0 0.00 0.00 0.00 93 1008.7
20260506072415 23 200 1.6 1.6 0.00 0.00 0.00 93 1008.3
20260506071912 23 159 4.8 4.8 0.00 0.00 0.00 93 1008.5
20260506071410 23 231 1.6 1.6 0.00 0.00 0.00 93 1008.4
20260506070907 23 89 3.2 8.0 0.00 0.00 0.00 93 1008.4
20260506070404 23 221 3.2 3.2 0.00 0.00 0.00 93 1008.8
20260506062341 23 238 1.6 1.6 0.00 0.00 0.00 93 1008.4
20260506061837 23 221 1.6 1.6 0.00 0.00 0.00 93 1008.5
20260506061333 23 238 1.6 1.6 0.00 0.00 0.00 93 1008.8
20260506060832 23 261 4.8 8.0 0.00 0.00 0.00 92 1008.6
20260506060330 23 77 3.2 3.2 0.00 0.00 0.00 92 1008.5
20260506051301 24 237 1.6 1.6 0.00 0.00 0.00 91 1008.7
20260506050759 24 208 1.6 1.6 0.00 0.00 0.00 90 1008.6
20260506050256 25 234 3.2 3.2 0.00 0.00 0.00 88 1008.5
20260506044747 25 205 1.6 3.2 0.00 0.00 0.00 88 1008.6
20260506044244 25 212 1.6 3.2 0.00 0.00 0.00 88 1008.6
20260506043741 24 217 1.6 3.2 0.00 0.00 0.00 91 1008.6
20260506043239 24 172 1.6 1.6 0.00 0.00 0.00 91 1008.6
20260506042737 24 179 3.2 4.8 0.00 0.00 0.00 91 1008.6
20260506042236 24 251 3.2 3.2 0.00 0.00 0.00 91 1008.4
20260506041734 24 234 0.0 0.0 0.00 0.00 0.00 91 1008.3
20260506041231 24 230 1.6 1.6 0.00 0.00 0.00 91 1008.5
20260506040728 24 250 1.6 1.6 0.00 0.00 0.00 91 1008.3
20260506040225 24 225 1.6 3.2 0.00 0.00 0.00 91 1008.4
20260506035721 24 230 1.6 3.2 0.00 0.00 0.00 91 1008.3
20260506035219 24 241 1.6 1.6 0.00 0.00 0.00 91 1008.4
20260506034715 24 250 1.6 3.2 0.00 0.00 0.00 91 1007.7
20260506034213 24 245 0.0 1.6 0.00 0.00 0.00 91 1008.2
20260506033710 24 232 1.6 1.6 0.00 0.00 0.00 91 1008.2
20260506033206 23 236 0.0 1.6 0.00 0.00 0.00 91 1007.8
20260506032703 23 244 0.0 1.6 0.00 0.00 0.00 91 1008.0
20260506032201 23 243 0.0 1.6 0.00 0.00 0.00 91 1007.9
20260506031657 23 238 0.0 0.0 0.00 0.00 0.00 91 1007.8
20260506031155 23 238 0.0 0.0 0.00 0.00 0.00 90 1007.5
20260506030653 23 239 0.0 0.0 0.00 0.00 0.00 89 1007.5
20260506030149 24 239 1.6 1.6 0.00 0.00 0.00 89 1007.5
20260506025646 24 229 0.0 0.0 0.00 0.00 0.00 87 1007.2
20260506025142 25 222 0.0 0.0 0.00 0.00 0.00 86 1007.2
20260506024640 25 209 0.0 1.6 0.00 0.00 0.00 85 1007.0
20260506024136 25 204 0.0 1.6 0.00 0.00 0.00 84 1007.1
20260506023633 25 207 0.0 1.6 0.00 0.00 0.00 85 1007.0
20260506023130 25 208 0.0 1.6 0.00 0.00 0.00 85 1007.2
20260506022627 23 209 1.6 1.6 0.00 0.00 0.00 89 1007.0
20260506022125 23 210 0.0 0.0 0.00 0.00 0.00 90 1006.9
20260506021622 23 210 0.0 0.0 0.00 0.00 0.00 90 1006.9
20260506021119 23 210 0.0 0.0 0.00 0.00 0.00 89 1006.8
20260506020616 23 210 0.0 0.0 0.00 0.00 0.00 89 1006.6
20260506020114 23 210 0.0 0.0 0.00 0.00 0.00 88 1006.5
20260506015611 24 210 0.0 0.0 0.00 0.00 0.00 88 1006.3
20260506015108 24 210 0.0 0.0 0.00 0.00 0.00 87 1006.5
20260506014606 25 210 0.0 0.0 0.00 0.00 0.00 86 1006.2
20260506014101 25 210 0.0 0.0 0.00 0.00 0.00 86 1006.3
20260506013600 25 210 0.0 0.0 0.00 0.00 0.00 85 1006.1
20260506013056 25 210 0.0 0.0 0.00 0.00 0.00 84 1005.9
20260506012552 25 210 0.0 1.6 0.00 0.00 0.00 83 1006.0
20260506012049 26 210 1.6 1.6 0.00 0.00 0.00 82 1006.1
20260506011547 26 209 0.0 1.6 0.00 0.00 0.00 81 1006.0
20260506011042 26 211 1.6 1.6 0.00 0.00 0.00 80 1006.0
20260506010537 27 216 0.0 1.6 0.00 0.00 0.00 78 1006.1
20260506010033 27 215 0.0 1.6 0.00 0.00 0.00 77 1006.1
20260506005530 27 220 0.0 1.6 0.00 0.00 0.00 76 1006.1
20260506005026 26 234 0.0 0.0 0.00 0.00 0.00 78 1006.1
20260506004523 27 238 0.0 0.0 0.00 0.00 0.00 78 1006.1
20260506004020 27 237 1.6 1.6 0.00 0.00 0.00 78 1005.9
20260506003516 27 226 0.0 0.0 0.00 0.00 0.00 77 1005.9
20260506003012 27 225 0.0 1.6 0.00 0.00 0.00 77 1005.8
20260506002509 27 225 0.0 0.0 0.00 0.00 0.00 76 1005.9
20260506002004 27 225 0.0 0.0 0.00 0.00 0.00 75 1006.1
20260506001501 27 225 0.0 0.0 0.00 0.00 0.00 74 1006.1
20260506000958 28 225 0.0 0.0 0.00 0.00 0.00 73 1006.0
20260506000455 28 216 1.6 1.6 0.00 0.00 0.00 72 1005.9
20260505235952 28 193 1.6 1.6 0.00 0.00 0.00 72 1005.8
20260505235451 28 200 1.6 1.6 0.00 0.00 0.00 70 1005.9
20260505234947 28 192 0.0 1.6 0.00 0.00 0.00 70 1005.9
20260505234445 29 212 1.6 3.2 0.00 0.00 0.00 69 1006.0
20260505233941 29 197 3.2 3.2 0.00 0.00 0.00 68 1005.7
20260505233439 29 224 1.6 1.6 0.00 0.00 0.00 68 1005.7
20260505232936 28 136 4.8 4.8 0.00 0.00 0.00 69 1005.8
20260505232434 28 189 3.2 3.2 0.00 0.00 0.00 71 1005.8
20260505231931 28 174 1.6 3.2 0.00 0.00 0.00 71 1005.9
20260505231428 28 229 1.6 1.6 0.00 0.00 0.00 71 1005.7
20260505230926 28 235 6.4 9.7 0.00 0.00 0.00 71 1005.8
20260505230424 28 221 1.6 3.2 0.00 0.00 0.00 70 1006.0
20260505225920 28 164 4.8 4.8 0.00 0.00 0.00 69 1005.9
20260505225417 28 213 1.6 1.6 0.00 0.00 0.00 70 1005.8
20260505224912 28 188 3.2 3.2 0.00 0.00 0.00 70 1005.7
20260505224410 29 281 3.2 3.2 0.00 0.00 0.00 70 1005.7
20260505223907 29 195 1.6 3.2 0.00 0.00 0.00 68 1005.7
20260505223404 29 191 3.2 3.2 0.00 0.00 0.00 67 1005.5
20260505222900 30 47 3.2 3.2 0.00 0.00 0.00 68 1005.5
20260505222356 29 187 3.2 3.2 0.00 0.00 0.00 67 1005.5
20260505221853 29 140 4.8 4.8 0.00 0.00 0.00 68 1005.8
20260505221350 29 111 4.8 8.0 0.00 0.00 0.00 68 1005.6
20260505220847 28 186 3.2 3.2 0.00 0.00 0.00 71 1005.6
20260505220344 28 112 4.8 4.8 0.00 0.00 0.00 70 1005.9
20260505215842 28 117 3.2 4.8 0.00 0.00 0.00 70 1005.8
20260505215339 28 228 3.2 4.8 0.00 0.00 0.00 70 1005.6
20260505214837 28 228 3.2 3.2 0.00 0.00 0.00 70 1006.0
20260505214335 28 81 4.8 9.7 0.00 0.00 0.00 70 1005.9
20260505213831 28 185 1.6 3.2 0.00 0.00 0.00 69 1005.7
20260505213330 29 285 4.8 4.8 0.00 0.00 0.00 69 1006.1
20260505212825 29 184 3.2 3.2 0.00 0.00 0.00 69 1006.2
20260505212322 30 104 6.4 8.0 0.00 0.00 0.00 66 1006.2
20260505211818 30 78 4.8 8.0 0.00 0.00 0.00 66 1006.2
20260505211316 30 153 1.6 3.2 0.00 0.00 0.00 68 1006.5
20260505210812 30 151 4.8 4.8 0.00 0.00 0.00 67 1006.2
20260505210309 29 237 4.8 11.3 0.00 0.00 0.00 68 1006.4
20260505205806 30 136 4.8 4.8 0.00 0.00 0.00 66 1006.4
20260505205305 29 292 4.8 8.0 0.00 0.00 0.00 68 1006.7
20260505204801 28 171 4.8 4.8 0.00 0.00 0.00 69 1006.7
20260505204259 28 166 4.8 4.8 0.00 0.00 0.00 69 1006.7
20260505203756 28 229 1.6 1.6 0.00 0.00 0.00 72 1006.8
20260505203253 28 182 1.6 1.6 0.00 0.00 0.00 71 1006.9
20260505202749 28 241 1.6 1.6 0.00 0.00 0.00 71 1006.9
20260505202245 28 266 3.2 4.8 0.00 0.00 0.00 71 1006.9
20260505201742 28 197 4.8 4.8 0.00 0.00 0.00 71 1007.2
20260505201239 28 120 1.6 3.2 0.00 0.00 0.00 72 1007.2
20260505200738 28 185 1.6 1.6 0.00 0.00 0.00 73 1007.3
20260505200235 28 202 1.6 3.2 0.00 0.00 0.00 71 1007.3
20260505195729 28 286 3.2 3.2 0.00 0.00 0.00 71 1007.5
20260505195227 28 160 3.2 3.2 0.00 0.00 0.00 72 1007.4
20260505194725 28 292 3.2 4.8 0.00 0.00 0.00 72 1007.6
20260505194221 28 217 0.0 1.6 0.00 0.00 0.00 70 1007.5
20260505193717 27 310 4.8 11.3 0.00 0.00 0.00 72 1007.7
20260505193214 28 215 1.6 1.6 0.00 0.00 0.00 72 1007.5
20260505192713 28 178 3.2 3.2 0.00 0.00 0.00 71 1007.6
20260505192210 27 198 4.8 4.8 0.00 0.00 0.00 73 1007.6
20260505191708 28 194 4.8 4.8 0.00 0.00 0.00 72 1007.6
20260505191206 27 179 1.6 1.6 0.00 0.00 0.00 74 1007.8
20260505190702 27 168 3.2 3.2 0.00 0.00 0.00 75 1007.9
20260505190201 27 133 4.8 4.8 0.00 0.00 0.00 74 1007.7
20260505185659 26 182 3.2 3.2 0.00 0.00 0.00 77 1007.7
20260505185155 27 45 4.8 4.8 0.00 0.00 0.00 76 1007.9
20260505184651 27 93 4.8 4.8 0.00 0.00 0.00 75 1008.0
20260505184148 26 119 4.8 4.8 0.00 0.00 0.00 76 1008.2
20260505183645 26 163 4.8 4.8 0.00 0.00 0.00 76 1008.2
20260505183143 26 82 4.8 4.8 0.00 0.00 0.00 76 1008.5
20260505182639 26 110 3.2 3.2 0.00 0.00 0.00 77 1008.5
20260505182136 26 167 3.2 3.2 0.00 0.00 0.00 78 1008.4
20260505181632 26 174 3.2 4.8 0.00 0.00 0.00 78 1008.5
20260505181130 26 179 3.2 3.2 0.00 0.00 0.00 79 1008.7
20260505180626 25 178 3.2 3.2 0.00 0.00 0.00 79 1008.7
20260505180123 26 132 4.8 4.8 0.00 0.00 0.00 78 1008.3
20260505175619 26 187 3.2 3.2 0.00 0.00 0.00 76 1008.9
20260505175116 25 146 4.8 4.8 0.00 0.00 0.00 79 1009.0
20260505174613 25 108 4.8 4.8 0.00 0.00 0.00 80 1008.8
20260505174109 24 140 4.8 4.8 0.00 0.00 0.00 83 1008.9
20260505173606 24 127 6.4 8.0 0.00 0.00 0.00 82 1008.8
20260505173102 25 104 3.2 4.8 0.00 0.00 0.00 83 1008.9
20260505172600 24 115 3.2 3.2 0.00 0.00 0.00 84 1008.7
20260505172057 23 215 1.6 1.6 0.00 0.00 0.00 85 1008.7
20260505171551 23 60 4.8 4.8 0.00 0.00 0.00 85 1008.8
20260505171049 23 217 3.2 3.2 0.00 0.00 0.00 85 1009.0
20260505170545 23 105 3.2 4.8 0.00 0.00 0.00 86 1008.9
20260505170042 23 169 3.2 4.8 0.00 0.00 0.00 86 1008.8
20260505165537 23 177 3.2 3.2 0.00 0.00 0.00 87 1009.0
20260505165033 23 87 3.2 4.8 0.00 0.00 0.00 87 1009.1
20260505164529 23 156 4.8 4.8 0.00 0.00 0.00 88 1009.1
20260505164027 22 169 3.2 3.2 0.00 0.00 0.00 88 1009.0
20260505163526 23 166 1.6 3.2 0.00 0.00 0.00 88 1009.0
20260505163022 22 184 1.6 3.2 0.00 0.00 0.00 89 1008.9
20260505162515 22 99 3.2 4.8 0.00 0.00 0.00 89 1008.9
20260505162012 22 171 3.2 3.2 0.00 0.00 0.00 90 1008.9
20260505161509 22 154 4.8 4.8 0.00 0.00 0.00 90 1008.8
20260505161006 22 156 3.2 3.2 0.00 0.00 0.00 90 1009.0
20260505160504 22 216 4.8 4.8 0.00 0.00 0.00 91 1009.1
20260505152940 21 166 3.2 3.2 0.00 0.00 0.00 93 1008.7
20260505152437 21 185 1.6 1.6 0.00 0.00 0.00 93 1008.6
20260505151932 21 188 3.2 3.2 0.00 0.00 0.00 94 1008.8
20260505151428 21 156 4.8 4.8 0.00 0.00 0.00 94 1008.8
20260505150925 21 194 1.6 3.2 0.00 0.00 0.00 94 1008.8
20260505150422 21 141 4.8 4.8 0.00 0.00 0.00 94 1008.6